Time,TemperatureF,DewpointF,PressureIn,WindDirection,WindDirectionDegrees,WindSpeedMPH,WindSpeedGustMPH,Humidity,HourlyPrecipIn,Conditions,Clouds,dailyrainin,SoftwareType,DateUTC
2013-03-02 00:02:00,31.8,25.7,30.00,NNW,338,6.0,10.0,78,0.00,,,0.13,meteohub,2013-03-02 05:02:00,
2013-03-02 00:07:00,31.6,25.3,29.99,NNW,347,9.0,10.0,77,0.00,,,0.00,meteohub,2013-03-02 05:07:00,
2013-03-02 00:12:00,31.6,25.5,29.99,North,9,4.0,11.0,78,0.00,,,0.00,meteohub,2013-03-02 05:12:00,
2013-03-02 00:22:00,31.5,25.3,29.99,NNE,29,5.0,11.0,78,0.00,,,0.00,meteohub,2013-03-02 05:22:00,
2013-03-02 00:27:00,31.3,25.0,29.99,NNE,22,7.0,10.0,77,0.00,,,0.00,meteohub,2013-03-02 05:27:00,
2013-03-02 00:32:00,31.1,24.1,30.00,NNE,13,10.0,12.0,75,0.00,,,0.00,meteohub,2013-03-02 05:32:00,
2013-03-02 00:37:00,31.1,24.4,30.00,NNE,20,5.0,13.0,76,0.00,,,0.00,meteohub,2013-03-02 05:37:00,
2013-03-02 00:42:00,30.9,23.9,30.00,North,9,9.0,13.0,75,0.00,,,0.00,meteohub,2013-03-02 05:42:00,
2013-03-02 00:47:00,30.9,23.9,30.00,NNW,337,6.0,13.0,75,0.00,,,0.00,meteohub,2013-03-02 05:47:00,
2013-03-02 00:52:00,30.7,24.1,30.00,North,0,8.0,14.0,76,0.00,,,0.00,meteohub,2013-03-02 05:52:00,
2013-03-02 00:57:00,30.7,23.7,30.00,NNE,25,7.0,14.0,75,0.00,,,0.00,meteohub,2013-03-02 05:57:00,
2013-03-02 01:02:00,30.7,23.7,30.00,NNW,346,5.0,14.0,75,0.00,,,0.00,meteohub,2013-03-02 06:02:00,
2013-03-02 01:07:00,30.7,24.1,30.00,North,6,8.0,15.0,76,0.00,,,0.00,meteohub,2013-03-02 06:07:00,
2013-03-02 01:12:00,30.7,23.7,30.00,North,0,4.0,15.0,75,0.00,,,0.00,meteohub,2013-03-02 06:12:00,
2013-03-02 01:17:00,30.6,23.5,30.00,NE,45,9.0,15.0,75,0.00,,,0.00,meteohub,2013-03-02 06:17:00,
2013-03-02 01:22:00,30.7,24.4,30.00,North,355,6.0,12.0,77,0.00,,,0.00,meteohub,2013-03-02 06:22:00,
2013-03-02 01:27:00,30.6,23.9,30.00,North,5,4.0,12.0,76,0.00,,,0.00,meteohub,2013-03-02 06:27:00,
2013-03-02 01:32:00,30.6,23.5,30.00,NNE,23,4.0,13.0,75,0.00,,,0.00,meteohub,2013-03-02 06:32:00,
2013-03-02 01:37:00,30.6,23.9,30.00,NNE,18,4.0,13.0,76,0.00,,,0.00,meteohub,2013-03-02 06:37:00,
2013-03-02 01:42:00,30.6,24.3,30.00,NNE,18,5.0,13.0,77,0.00,,,0.00,meteohub,2013-03-02 06:42:00,
2013-03-02 01:47:00,30.6,24.3,30.00,NNE,19,8.0,13.0,77,0.00,,,0.00,meteohub,2013-03-02 06:47:00,
2013-03-02 01:52:00,30.6,23.9,30.01,North,7,8.0,13.0,76,0.00,,,0.00,meteohub,2013-03-02 06:52:00,
2013-03-02 01:57:00,30.4,23.7,30.01,NNE,29,9.0,11.0,76,0.00,,,0.00,meteohub,2013-03-02 06:57:00,
2013-03-02 02:02:00,30.4,24.1,30.01,NNE,12,7.0,13.0,77,0.00,,,0.00,meteohub,2013-03-02 07:02:00,
2013-03-02 02:07:00,30.4,24.1,30.01,North,4,6.0,13.0,77,0.00,,,0.00,meteohub,2013-03-02 07:07:00,
2013-03-02 02:12:00,30.2,23.5,30.01,NE,34,4.0,13.0,76,0.00,,,0.00,meteohub,2013-03-02 07:12:00,
2013-03-02 02:17:00,30.2,23.9,30.01,NNE,12,5.0,11.0,77,0.00,,,0.00,meteohub,2013-03-02 07:17:00,
2013-03-02 02:22:00,30.2,23.5,30.01,NNW,339,4.0,12.0,76,0.00,,,0.00,meteohub,2013-03-02 07:22:00,
2013-03-02 02:27:00,30.0,23.7,30.01,North,351,9.0,12.0,77,0.00,,,0.00,meteohub,2013-03-02 07:27:00,
2013-03-02 02:32:00,30.0,23.7,30.01,NNE,18,5.0,12.0,77,0.00,,,0.00,meteohub,2013-03-02 07:32:00,
2013-03-02 02:37:00,29.8,23.9,30.01,NNE,25,5.0,14.0,78,0.00,,,0.00,meteohub,2013-03-02 07:37:00,
2013-03-02 02:42:00,29.8,23.9,30.00,NNW,345,7.0,14.0,78,0.00,,,0.00,meteohub,2013-03-02 07:42:00,
2013-03-02 02:47:00,29.8,23.9,30.00,NNW,338,6.0,14.0,78,0.00,,,0.00,meteohub,2013-03-02 07:47:00,
2013-03-02 02:52:00,29.7,23.4,30.00,NE,40,6.0,14.0,77,0.00,,,0.00,meteohub,2013-03-02 07:52:00,
2013-03-02 02:57:00,29.7,23.7,30.00,North,9,8.0,14.0,78,0.00,,,0.00,meteohub,2013-03-02 07:57:00,
2013-03-02 03:02:00,29.7,23.4,30.00,NNE,25,6.0,14.0,77,0.00,,,0.00,meteohub,2013-03-02 08:02:00,
2013-03-02 03:07:00,29.7,23.0,30.00,NNE,18,5.0,13.0,76,0.00,,,0.00,meteohub,2013-03-02 08:07:00,
2013-03-02 03:12:00,29.7,23.4,30.00,NNE,15,8.0,12.0,77,0.00,,,0.00,meteohub,2013-03-02 08:12:00,
2013-03-02 03:17:00,29.5,22.8,30.00,North,351,7.0,12.0,76,0.00,,,0.00,meteohub,2013-03-02 08:17:00,
2013-03-02 03:22:00,29.5,22.8,30.00,North,3,10.0,14.0,76,0.00,,,0.00,meteohub,2013-03-02 08:22:00,
2013-03-02 03:27:00,29.3,22.6,30.00,North,7,5.0,16.0,76,0.00,,,0.00,meteohub,2013-03-02 08:27:00,
2013-03-02 03:32:00,29.1,22.8,30.00,North,4,4.0,16.0,77,0.00,,,0.00,meteohub,2013-03-02 08:32:00,
2013-03-02 03:37:00,29.1,23.2,30.00,NNW,344,10.0,16.0,78,0.00,,,0.00,meteohub,2013-03-02 08:37:00,
2013-03-02 03:42:00,29.1,23.2,30.00,North,349,8.0,10.0,78,0.00,,,0.00,meteohub,2013-03-02 08:42:00,
2013-03-02 03:47:00,28.9,22.6,30.00,North,5,7.0,10.0,77,0.00,,,0.00,meteohub,2013-03-02 08:47:00,
2013-03-02 03:52:00,28.9,22.6,30.00,North,6,5.0,10.0,77,0.00,,,0.00,meteohub,2013-03-02 08:52:00,
2013-03-02 03:57:00,28.9,22.6,30.00,NNE,13,4.0,12.0,77,0.00,,,0.00,meteohub,2013-03-02 08:57:00,
2013-03-02 04:02:00,29.1,22.8,30.00,North,4,7.0,12.0,77,0.00,,,0.00,meteohub,2013-03-02 09:02:00,
2013-03-02 04:07:00,29.1,22.5,29.99,North,358,6.0,12.0,76,0.00,,,0.00,meteohub,2013-03-02 09:07:00,
2013-03-02 04:12:00,29.1,22.8,29.99,NNE,19,8.0,13.0,77,0.00,,,0.00,meteohub,2013-03-02 09:12:00,
2013-03-02 04:17:00,29.1,22.8,29.99,NNE,22,4.0,13.0,77,0.00,,,0.00,meteohub,2013-03-02 09:17:00,
2013-03-02 04:22:00,29.1,23.2,29.99,NNE,15,7.0,13.0,78,0.00,,,0.00,meteohub,2013-03-02 09:22:00,
2013-03-02 04:27:00,29.1,23.2,29.99,NNE,20,5.0,10.0,78,0.00,,,0.00,meteohub,2013-03-02 09:27:00,
2013-03-02 04:32:00,29.1,22.8,29.99,NNW,344,4.0,10.0,77,0.00,,,0.00,meteohub,2013-03-02 09:32:00,
2013-03-02 04:37:00,28.9,22.6,29.99,North,354,6.0,10.0,77,0.00,,,0.00,meteohub,2013-03-02 09:37:00,
2013-03-02 04:42:00,28.9,22.6,29.99,North,359,6.0,10.0,77,0.00,,,0.00,meteohub,2013-03-02 09:42:00,
2013-03-02 04:47:00,28.9,22.3,29.99,North,5,8.0,11.0,76,0.00,,,0.00,meteohub,2013-03-02 09:47:00,
2013-03-02 04:52:00,28.9,23.0,29.99,North,7,3.0,13.0,78,0.00,,,0.00,meteohub,2013-03-02 09:52:00,
2013-03-02 04:57:00,28.9,22.6,29.99,North,349,7.0,13.0,77,0.00,,,0.00,meteohub,2013-03-02 09:57:00,
2013-03-02 05:02:00,28.9,23.0,30.00,North,355,6.0,11.0,78,0.00,,,0.00,meteohub,2013-03-02 10:02:00,
2013-03-02 05:07:00,28.9,22.6,30.00,NE,51,5.0,12.0,77,0.00,,,0.00,meteohub,2013-03-02 10:07:00,
2013-03-02 05:13:00,28.9,22.6,30.00,NNE,27,5.0,12.0,77,0.00,,,0.00,meteohub,2013-03-02 10:13:00,
2013-03-02 05:22:00,28.9,22.6,30.00,NNE,25,9.0,10.0,77,0.00,,,0.00,meteohub,2013-03-02 10:22:00,
2013-03-02 05:27:00,28.8,22.1,30.00,North,358,6.0,10.0,76,0.00,,,0.00,meteohub,2013-03-02 10:27:00,
2013-03-02 05:32:00,28.8,22.5,30.00,NNE,20,4.0,10.0,77,0.00,,,0.00,meteohub,2013-03-02 10:32:00,
2013-03-02 05:37:00,28.9,22.6,30.00,NNE,25,6.0,10.0,77,0.00,,,0.00,meteohub,2013-03-02 10:37:00,
2013-03-02 05:47:00,28.8,22.5,30.00,North,349,7.0,9.0,77,0.00,,,0.00,meteohub,2013-03-02 10:47:00,
2013-03-02 05:52:00,28.8,23.0,30.00,North,352,7.0,10.0,79,0.00,,,0.00,meteohub,2013-03-02 10:52:00,
2013-03-02 05:57:00,28.6,22.6,30.00,North,6,6.0,10.0,78,0.00,,,0.00,meteohub,2013-03-02 10:57:00,
2013-03-02 06:02:00,28.6,22.8,30.00,NE,42,6.0,14.0,79,0.00,,,0.00,meteohub,2013-03-02 11:02:00,
2013-03-02 06:07:00,28.6,22.8,30.01,NNE,13,8.0,14.0,79,0.00,,,0.00,meteohub,2013-03-02 11:07:00,
2013-03-02 06:12:00,28.6,22.8,30.01,NNE,26,8.0,14.0,79,0.00,,,0.00,meteohub,2013-03-02 11:12:00,
2013-03-02 06:17:00,28.4,22.5,30.01,NNW,340,5.0,13.0,78,0.00,,,0.00,meteohub,2013-03-02 11:17:00,
2013-03-02 06:22:00,28.4,22.6,30.01,NNW,339,6.0,13.0,79,0.00,,,0.00,meteohub,2013-03-02 11:22:00,
2013-03-02 06:27:00,28.6,22.8,30.01,NNW,338,4.0,12.0,79,0.00,,,0.00,meteohub,2013-03-02 11:27:00,
2013-03-02 06:32:00,28.2,22.3,30.01,NNW,333,7.0,10.0,78,0.00,,,0.00,meteohub,2013-03-02 11:32:00,
2013-03-02 06:37:00,28.2,22.3,30.01,North,7,11.0,11.0,78,0.00,,,0.00,meteohub,2013-03-02 11:37:00,
2013-03-02 06:42:00,28.2,22.3,30.01,North,8,7.0,11.0,78,0.00,,,0.00,meteohub,2013-03-02 11:42:00,
2013-03-02 06:47:00,28.2,21.9,30.01,North,353,5.0,11.0,77,0.00,,,0.00,meteohub,2013-03-02 11:47:00,
2013-03-02 06:52:00,28.0,22.1,30.01,North,5,8.0,11.0,78,0.00,,,0.00,meteohub,2013-03-02 11:52:00,
2013-03-02 06:57:00,28.2,22.3,30.01,NNE,12,10.0,11.0,78,0.00,,,0.00,meteohub,2013-03-02 11:57:00,
2013-03-02 07:02:00,28.2,22.3,30.01,North,6,7.0,12.0,78,0.00,,,0.00,meteohub,2013-03-02 12:02:00,
2013-03-02 07:07:00,28.0,21.7,30.01,North,8,11.0,12.0,77,0.00,,,0.00,meteohub,2013-03-02 12:07:00,
2013-03-02 07:12:00,28.0,21.7,30.01,NNW,343,7.0,12.0,77,0.00,,,0.00,meteohub,2013-03-02 12:12:00,
2013-03-02 07:17:00,28.0,21.7,30.01,NNW,335,3.0,12.0,77,0.00,,,0.00,meteohub,2013-03-02 12:17:00,
2013-03-02 07:22:00,28.0,22.1,30.02,NNW,327,7.0,12.0,78,0.00,,,0.00,meteohub,2013-03-02 12:22:00,
2013-03-02 07:27:00,28.0,22.1,30.02,North,353,4.0,12.0,78,0.00,,,0.00,meteohub,2013-03-02 12:27:00,
2013-03-02 07:32:00,28.0,22.1,30.02,NNE,23,5.0,12.0,78,0.00,,,0.00,meteohub,2013-03-02 12:32:00,
2013-03-02 07:37:00,28.0,22.1,30.02,NNW,333,3.0,12.0,78,0.00,,,0.00,meteohub,2013-03-02 12:37:00,
2013-03-02 07:42:00,28.0,22.1,30.02,North,352,4.0,10.0,78,0.00,,,0.00,meteohub,2013-03-02 12:42:00,
2013-03-02 07:47:00,28.0,22.5,30.02,NNE,12,4.0,6.0,79,0.00,,,0.00,meteohub,2013-03-02 12:47:00,
2013-03-02 07:52:00,28.0,22.5,30.03,NE,34,5.0,6.0,79,0.00,,,0.00,meteohub,2013-03-02 12:52:00,
2013-03-02 07:57:00,28.0,22.5,30.03,NNE,13,6.0,12.0,79,0.00,,,0.00,meteohub,2013-03-02 12:57:00,
2013-03-02 08:02:00,28.2,22.8,30.03,NNW,338,5.0,12.0,80,0.00,,,0.00,meteohub,2013-03-02 13:02:00,
2013-03-02 08:07:00,28.2,23.2,30.03,East,84,5.0,12.0,81,0.00,,,0.00,meteohub,2013-03-02 13:07:00,
2013-03-02 08:12:00,28.2,22.8,30.03,North,354,7.0,11.0,80,0.00,,,0.00,meteohub,2013-03-02 13:12:00,
2013-03-02 08:17:00,28.2,22.6,30.03,North,349,9.0,11.0,79,0.00,,,0.00,meteohub,2013-03-02 13:17:00,
2013-03-02 08:22:00,28.0,22.1,30.04,North,4,7.0,12.0,78,0.00,,,0.00,meteohub,2013-03-02 13:22:00,
2013-03-02 08:27:00,28.0,22.1,30.04,NNE,15,4.0,12.0,78,0.00,,,0.00,meteohub,2013-03-02 13:27:00,
2013-03-02 08:32:00,28.0,22.5,30.04,NE,36,8.0,12.0,79,0.00,,,0.00,meteohub,2013-03-02 13:32:00,
2013-03-02 08:37:00,28.0,22.5,30.04,NNE,31,9.0,10.0,79,0.00,,,0.00,meteohub,2013-03-02 13:37:00,
2013-03-02 08:42:00,28.0,22.1,30.04,NNE,25,6.0,12.0,78,0.00,,,0.00,meteohub,2013-03-02 13:42:00,
2013-03-02 08:47:00,27.9,22.5,30.04,NNE,12,6.0,12.0,80,0.00,,,0.00,meteohub,2013-03-02 13:47:00,
2013-03-02 08:52:00,28.0,22.5,30.04,NE,40,5.0,10.0,79,0.00,,,0.00,meteohub,2013-03-02 13:52:00,
2013-03-02 08:57:00,28.0,22.6,30.04,NE,37,5.0,9.0,80,0.00,,,0.00,meteohub,2013-03-02 13:57:00,
2013-03-02 09:02:00,27.9,21.9,30.04,NE,36,5.0,8.0,78,0.00,,,0.00,meteohub,2013-03-02 14:02:00,
2013-03-02 09:07:00,27.9,22.3,30.04,NE,49,5.0,9.0,79,0.00,,,0.00,meteohub,2013-03-02 14:07:00,
2013-03-02 09:12:00,27.9,22.3,30.04,North,349,5.0,9.0,79,0.00,,,0.00,meteohub,2013-03-02 14:12:00,
2013-03-02 09:17:00,27.7,21.7,30.04,NE,34,5.0,9.0,78,0.00,,,0.00,meteohub,2013-03-02 14:17:00,
2013-03-02 09:22:00,27.9,22.5,30.04,North,1,6.0,9.0,80,0.00,,,0.00,meteohub,2013-03-02 14:22:00,
2013-03-02 09:27:00,27.9,22.3,30.04,North,0,9.0,11.0,79,0.00,,,0.00,meteohub,2013-03-02 14:27:00,
2013-03-02 09:32:00,28.0,22.5,30.04,North,0,6.0,12.0,79,0.00,,,0.00,meteohub,2013-03-02 14:32:00,
2013-03-02 09:37:00,28.0,21.7,30.04,NNW,338,5.0,12.0,77,0.00,,,0.00,meteohub,2013-03-02 14:37:00,
2013-03-02 09:42:00,27.9,21.2,30.04,NNE,23,8.0,13.0,76,0.00,,,0.00,meteohub,2013-03-02 14:42:00,
2013-03-02 09:47:00,27.9,21.2,30.04,NNW,340,5.0,13.0,76,0.00,,,0.00,meteohub,2013-03-02 14:47:00,
2013-03-02 09:57:00,28.0,22.1,30.04,West,267,2.0,11.0,78,0.00,,,0.00,meteohub,2013-03-02 14:57:00,
2013-03-02 10:02:00,28.0,21.7,30.04,North,7,7.0,8.0,77,0.00,,,0.00,meteohub,2013-03-02 15:02:00,
2013-03-02 10:07:00,28.0,21.7,30.04,NNE,30,4.0,8.0,77,0.00,,,0.00,meteohub,2013-03-02 15:07:00,
2013-03-02 10:12:00,28.0,21.7,30.05,NNW,341,5.0,11.0,77,0.00,,,0.00,meteohub,2013-03-02 15:12:00,
2013-03-02 10:17:00,28.0,22.1,30.04,NNW,337,4.0,11.0,78,0.00,,,0.00,meteohub,2013-03-02 15:17:00,
2013-03-02 10:22:00,28.0,22.5,30.05,NW,316,5.0,8.0,79,0.00,,,0.00,meteohub,2013-03-02 15:22:00,
2013-03-02 10:27:00,28.0,22.1,30.05,North,349,2.0,8.0,78,0.00,,,0.00,meteohub,2013-03-02 15:27:00,
2013-03-02 10:32:00,28.0,22.1,30.05,NW,319,2.0,7.0,78,0.00,,,0.00,meteohub,2013-03-02 15:32:00,
2013-03-02 10:37:00,28.2,22.6,30.04,NW,326,4.0,7.0,79,0.00,,,0.00,meteohub,2013-03-02 15:37:00,
2013-03-02 10:42:00,28.2,22.3,30.05,North,4,2.0,7.0,78,0.00,,,0.00,meteohub,2013-03-02 15:42:00,
2013-03-02 10:47:00,28.2,22.6,30.04,North,0,1.0,7.0,79,0.00,,,0.00,meteohub,2013-03-02 15:47:00,
2013-03-02 10:52:00,28.4,22.6,30.04,NW,326,2.0,7.0,79,0.00,,,0.00,meteohub,2013-03-02 15:52:00,
2013-03-02 10:57:00,28.6,22.8,30.04,NNW,331,3.0,8.0,79,0.00,,,0.00,meteohub,2013-03-02 15:57:00,
2013-03-02 11:02:00,28.4,23.0,30.04,NE,40,3.0,8.0,80,0.00,,,0.00,meteohub,2013-03-02 16:02:00,
2013-03-02 11:07:00,28.2,23.4,30.04,NNW,340,4.0,8.0,82,0.00,,,0.00,meteohub,2013-03-02 16:07:00,
2013-03-02 11:12:00,28.2,23.4,30.04,NNW,347,4.0,7.0,82,0.00,,,0.00,meteohub,2013-03-02 16:12:00,
2013-03-02 11:17:00,28.2,23.7,30.04,NW,326,2.0,7.0,83,0.00,,,0.00,meteohub,2013-03-02 16:17:00,
2013-03-02 11:22:00,28.4,23.5,30.05,NNW,333,1.0,7.0,82,0.00,,,0.00,meteohub,2013-03-02 16:22:00,
2013-03-02 11:27:00,28.6,24.1,30.05,NNW,336,4.0,7.0,83,0.00,,,0.00,meteohub,2013-03-02 16:27:00,
2013-03-02 11:32:00,28.6,23.5,30.05,NNW,338,5.0,7.0,81,0.00,,,0.00,meteohub,2013-03-02 16:32:00,
2013-03-02 11:37:00,28.6,24.1,30.04,NE,44,4.0,7.0,83,0.00,,,0.00,meteohub,2013-03-02 16:37:00,
2013-03-02 11:42:00,28.6,23.7,30.05,NNW,344,4.0,9.0,82,0.00,,,0.00,meteohub,2013-03-02 16:42:00,
2013-03-02 11:47:00,28.6,23.7,30.05,NNE,27,8.0,9.0,82,0.00,,,0.00,meteohub,2013-03-02 16:47:00,
2013-03-02 11:52:00,28.6,23.7,30.05,NNE,29,5.0,9.0,82,0.00,,,0.00,meteohub,2013-03-02 16:52:00,
2013-03-02 11:57:00,28.6,24.1,30.05,NNE,12,5.0,10.0,83,0.00,,,0.00,meteohub,2013-03-02 16:57:00,
2013-03-02 12:02:00,28.8,23.7,30.05,NNW,328,7.0,10.0,81,0.00,,,0.00,meteohub,2013-03-02 17:02:00,
2013-03-02 12:07:00,28.8,23.4,30.05,NNW,333,9.0,12.0,80,0.00,,,0.00,meteohub,2013-03-02 17:07:00,
2013-03-02 12:12:00,28.9,23.9,30.05,North,7,6.0,12.0,81,0.00,,,0.00,meteohub,2013-03-02 17:12:00,
2013-03-02 12:17:00,28.9,23.9,30.05,NNE,29,7.0,12.0,81,0.00,,,0.00,meteohub,2013-03-02 17:17:00,
2013-03-02 12:22:00,29.3,23.9,30.05,NNE,27,5.0,10.0,80,0.00,,,0.00,meteohub,2013-03-02 17:22:00,
2013-03-02 12:27:00,29.5,23.7,30.05,NNE,22,7.0,10.0,79,0.00,,,0.00,meteohub,2013-03-02 17:27:00,
2013-03-02 12:32:00,29.5,23.5,30.04,NNE,27,8.0,9.0,78,0.00,,,0.00,meteohub,2013-03-02 17:32:00,
2013-03-02 12:37:00,29.7,23.4,30.04,ESE,102,3.0,8.0,77,0.00,,,0.00,meteohub,2013-03-02 17:37:00,
2013-03-02 12:42:00,30.0,22.8,30.04,North,0,1.0,8.0,74,0.00,,,0.00,meteohub,2013-03-02 17:42:00,
2013-03-02 12:47:00,30.4,22.8,30.04,WNW,289,2.0,8.0,73,0.00,,,0.00,meteohub,2013-03-02 17:47:00,
2013-03-02 12:57:00,29.8,21.9,30.04,NNE,15,8.0,9.0,72,0.00,,,0.00,meteohub,2013-03-02 17:57:00,
2013-03-02 13:02:00,29.8,23.5,30.03,NW,323,4.0,11.0,77,0.00,,,0.00,meteohub,2013-03-02 18:02:00,
2013-03-02 13:07:00,29.8,23.2,30.03,NNW,338,3.0,11.0,76,0.00,,,0.00,meteohub,2013-03-02 18:07:00,
2013-03-02 13:12:00,29.8,23.2,30.03,NNE,19,7.0,11.0,76,0.00,,,0.00,meteohub,2013-03-02 18:12:00,
2013-03-02 13:17:00,29.7,22.6,30.02,North,1,3.0,11.0,75,0.00,,,0.00,meteohub,2013-03-02 18:17:00,
2013-03-02 13:22:00,30.0,23.7,30.02,NE,36,6.0,11.0,77,0.00,,,0.00,meteohub,2013-03-02 18:22:00,
2013-03-02 13:27:00,29.8,22.8,30.02,NW,320,1.0,11.0,75,0.00,,,0.00,meteohub,2013-03-02 18:27:00,
2013-03-02 13:32:00,30.0,23.4,30.02,NNW,342,3.0,8.0,76,0.00,,,0.00,meteohub,2013-03-02 18:32:00,
2013-03-02 13:37:00,30.4,23.4,30.02,NNE,21,4.0,9.0,75,0.00,,,0.00,meteohub,2013-03-02 18:37:00,
2013-03-02 13:42:00,30.4,22.5,30.02,NW,322,5.0,9.0,72,0.00,,,0.00,meteohub,2013-03-02 18:42:00,
2013-03-02 13:47:00,30.4,22.5,30.01,NNE,20,8.0,10.0,72,0.00,,,0.00,meteohub,2013-03-02 18:47:00,
2013-03-02 13:52:00,30.4,22.5,30.01,NNE,16,7.0,11.0,72,0.00,,,0.00,meteohub,2013-03-02 18:52:00,
2013-03-02 13:57:00,30.2,22.6,30.01,North,4,5.0,11.0,73,0.00,,,0.00,meteohub,2013-03-02 18:57:00,
2013-03-02 14:07:00,30.0,22.1,30.01,North,3,9.0,11.0,72,0.00,,,0.00,meteohub,2013-03-02 19:07:00,
2013-03-02 14:12:00,30.0,22.1,30.01,NNW,335,7.0,11.0,72,0.00,,,0.00,meteohub,2013-03-02 19:12:00,
2013-03-02 14:17:00,30.0,22.1,30.01,NNW,336,6.0,14.0,72,0.00,,,0.00,meteohub,2013-03-02 19:17:00,
2013-03-02 14:22:00,30.0,21.7,30.02,North,9,5.0,14.0,71,0.00,,,0.00,meteohub,2013-03-02 19:22:00,
2013-03-02 14:27:00,30.0,22.5,30.02,NW,313,4.0,14.0,73,0.00,,,0.00,meteohub,2013-03-02 19:27:00,
2013-03-02 14:32:00,30.0,22.1,30.02,NNW,343,8.0,11.0,72,0.00,,,0.00,meteohub,2013-03-02 19:32:00,
2013-03-02 14:37:00,30.0,22.5,30.02,NNW,328,2.0,14.0,73,0.00,,,0.00,meteohub,2013-03-02 19:37:00,
2013-03-02 14:42:00,30.0,22.5,30.02,NW,323,1.0,14.0,73,0.00,,,0.00,meteohub,2013-03-02 19:42:00,
2013-03-02 14:47:00,30.0,23.0,30.02,NNE,31,4.0,14.0,75,0.00,,,0.00,meteohub,2013-03-02 19:47:00,
2013-03-02 14:52:00,30.0,22.8,30.01,North,7,9.0,9.0,74,0.00,,,0.00,meteohub,2013-03-02 19:52:00,
2013-03-02 14:57:00,30.0,22.8,30.02,NW,304,5.0,11.0,74,0.00,,,0.00,meteohub,2013-03-02 19:57:00,
2013-03-02 15:02:00,30.0,22.8,30.02,North,351,7.0,11.0,74,0.00,,,0.00,meteohub,2013-03-02 20:02:00,
2013-03-02 15:07:00,29.8,22.6,30.02,NW,304,4.0,11.0,74,0.00,,,0.00,meteohub,2013-03-02 20:07:00,
2013-03-02 15:12:00,29.8,22.6,30.02,NNW,338,5.0,9.0,74,0.00,,,0.00,meteohub,2013-03-02 20:12:00,
2013-03-02 15:17:00,30.0,22.8,30.02,North,359,8.0,14.0,74,0.00,,,0.00,meteohub,2013-03-02 20:17:00,
2013-03-02 15:22:00,30.0,22.8,30.02,NNW,330,3.0,14.0,74,0.00,,,0.00,meteohub,2013-03-02 20:22:00,
2013-03-02 15:27:00,30.0,22.8,30.02,NNW,337,2.0,10.0,74,0.00,,,0.00,meteohub,2013-03-02 20:27:00,
2013-03-02 15:32:00,30.0,23.0,30.02,NNW,333,5.0,10.0,75,0.00,,,0.00,meteohub,2013-03-02 20:32:00,
2013-03-02 15:37:00,30.0,23.0,30.02,WNW,292,3.0,7.0,75,0.00,,,0.00,meteohub,2013-03-02 20:37:00,
2013-03-02 15:42:00,30.0,22.8,30.02,WNW,303,3.0,8.0,74,0.00,,,0.00,meteohub,2013-03-02 20:42:00,
2013-03-02 15:47:00,29.8,22.8,30.02,North,355,4.0,9.0,75,0.00,,,0.00,meteohub,2013-03-02 20:47:00,
2013-03-02 15:52:00,29.8,22.6,30.02,NNE,32,5.0,9.0,74,0.00,,,0.00,meteohub,2013-03-02 20:52:00,
2013-03-02 15:57:00,29.8,22.8,30.02,North,4,6.0,7.0,75,0.00,,,0.00,meteohub,2013-03-02 20:57:00,
2013-03-02 16:07:00,30.0,22.8,30.02,NNW,338,7.0,8.0,74,0.00,,,0.00,meteohub,2013-03-02 21:07:00,
2013-03-02 16:12:00,29.8,22.6,30.02,NNW,339,4.0,10.0,74,0.00,,,0.00,meteohub,2013-03-02 21:12:00,
2013-03-02 16:17:00,30.0,23.0,30.02,North,1,7.0,10.0,75,0.00,,,0.00,meteohub,2013-03-02 21:17:00,
2013-03-02 16:22:00,29.8,22.6,30.02,NW,316,5.0,10.0,74,0.00,,,0.00,meteohub,2013-03-02 21:22:00,
2013-03-02 16:27:00,29.8,22.8,30.02,NNW,333,4.0,10.0,75,0.00,,,0.00,meteohub,2013-03-02 21:27:00,
2013-03-02 16:32:00,29.8,22.8,30.02,WNW,298,5.0,10.0,75,0.00,,,0.00,meteohub,2013-03-02 21:32:00,
2013-03-02 16:37:00,29.8,22.8,30.03,North,358,4.0,10.0,75,0.00,,,0.00,meteohub,2013-03-02 21:37:00,
2013-03-02 16:42:00,29.8,22.8,30.03,North,7,6.0,8.0,75,0.00,,,0.00,meteohub,2013-03-02 21:42:00,
2013-03-02 16:47:00,29.8,23.2,30.03,NNE,25,2.0,9.0,76,0.00,,,0.00,meteohub,2013-03-02 21:47:00,
2013-03-02 16:52:00,29.7,23.0,30.02,NNW,330,3.0,9.0,76,0.00,,,0.00,meteohub,2013-03-02 21:52:00,
2013-03-02 16:57:00,29.7,22.6,30.03,North,349,6.0,9.0,75,0.00,,,0.00,meteohub,2013-03-02 21:57:00,
2013-03-02 17:02:00,29.7,22.5,30.03,WNW,301,2.0,8.0,74,0.00,,,0.00,meteohub,2013-03-02 22:02:00,
2013-03-02 17:07:00,29.8,22.3,30.03,North,5,9.0,9.0,73,0.00,,,0.00,meteohub,2013-03-02 22:07:00,
2013-03-02 17:12:00,29.8,22.3,30.03,NNE,20,6.0,9.0,73,0.00,,,0.00,meteohub,2013-03-02 22:12:00,
2013-03-02 17:17:00,29.8,21.9,30.03,NNE,32,5.0,11.0,72,0.00,,,0.00,meteohub,2013-03-02 22:17:00,
2013-03-02 17:22:00,29.8,21.9,30.03,NNE,18,5.0,11.0,72,0.00,,,0.00,meteohub,2013-03-02 22:22:00,
2013-03-02 17:27:00,29.8,21.9,30.03,North,353,3.0,12.0,72,0.00,,,0.00,meteohub,2013-03-02 22:27:00,
2013-03-02 17:37:00,29.8,22.3,30.03,North,5,4.0,10.0,73,0.00,,,0.00,meteohub,2013-03-02 22:37:00,
2013-03-02 17:42:00,29.8,22.3,30.03,NNW,330,3.0,10.0,73,0.00,,,0.00,meteohub,2013-03-02 22:42:00,
2013-03-02 17:47:00,29.8,22.6,30.03,North,359,3.0,10.0,74,0.00,,,0.00,meteohub,2013-03-02 22:47:00,
2013-03-02 17:52:00,29.8,22.6,30.04,NNE,13,4.0,6.0,74,0.00,,,0.00,meteohub,2013-03-02 22:52:00,
2013-03-02 17:57:00,29.8,22.3,30.04,NNW,340,3.0,6.0,73,0.00,,,0.00,meteohub,2013-03-02 22:57:00,
2013-03-02 18:02:00,29.8,22.6,30.04,NNW,340,2.0,6.0,74,0.00,,,0.00,meteohub,2013-03-02 23:02:00,
2013-03-02 18:07:00,29.8,22.6,30.04,NW,323,2.0,6.0,74,0.00,,,0.00,meteohub,2013-03-02 23:07:00,
2013-03-02 18:12:00,29.8,22.6,30.04,NNW,330,2.0,5.0,74,0.00,,,0.00,meteohub,2013-03-02 23:12:00,
2013-03-02 18:17:00,29.8,22.8,30.04,NW,314,2.0,5.0,75,0.00,,,0.00,meteohub,2013-03-02 23:17:00,
2013-03-02 18:22:00,29.8,22.6,30.04,NW,322,6.0,6.0,74,0.00,,,0.00,meteohub,2013-03-02 23:22:00,
2013-03-02 18:27:00,29.8,22.6,30.04,NNW,331,5.0,7.0,74,0.00,,,0.00,meteohub,2013-03-02 23:27:00,
2013-03-02 18:32:00,29.7,22.1,30.04,North,349,3.0,7.0,73,0.00,,,0.00,meteohub,2013-03-02 23:32:00,
2013-03-02 18:37:00,29.8,22.3,30.04,NNW,342,2.0,7.0,73,0.00,,,0.00,meteohub,2013-03-02 23:37:00,
2013-03-02 18:42:00,29.8,22.3,30.05,NNW,338,2.0,7.0,73,0.00,,,0.00,meteohub,2013-03-02 23:42:00,
2013-03-02 18:47:00,29.7,22.1,30.05,NNW,330,2.0,6.0,73,0.00,,,0.00,meteohub,2013-03-02 23:47:00,
2013-03-02 18:52:00,29.7,22.1,30.05,NNW,333,2.0,5.0,73,0.00,,,0.00,meteohub,2013-03-02 23:52:00,
2013-03-02 18:57:00,29.8,22.3,30.05,NNW,347,2.0,5.0,73,0.00,,,0.00,meteohub,2013-03-02 23:57:00,
2013-03-02 19:02:00,29.8,22.3,30.05,NNW,342,1.0,5.0,73,0.00,,,0.00,meteohub,2013-03-03 00:02:00,
2013-03-02 19:07:00,29.8,22.6,30.05,NW,322,4.0,5.0,74,0.00,,,0.00,meteohub,2013-03-03 00:07:00,
2013-03-02 19:12:00,29.8,21.9,30.05,NNW,343,3.0,7.0,72,0.00,,,0.00,meteohub,2013-03-03 00:12:00,
2013-03-02 19:17:00,29.8,22.3,30.05,West,259,1.0,7.0,73,0.00,,,0.00,meteohub,2013-03-03 00:17:00,
2013-03-02 19:22:00,29.8,22.3,30.05,NW,325,2.0,7.0,73,0.00,,,0.00,meteohub,2013-03-03 00:22:00,
2013-03-02 19:27:00,29.8,22.3,30.05,NNW,338,1.0,5.0,73,0.00,,,0.00,meteohub,2013-03-03 00:27:00,
2013-03-02 19:32:00,29.8,22.3,30.05,North,4,0.0,4.0,73,0.00,,,0.00,meteohub,2013-03-03 00:32:00,
2013-03-02 19:37:00,29.7,22.1,30.05,NNW,338,3.0,3.0,73,0.00,,,0.00,meteohub,2013-03-03 00:37:00,
2013-03-02 19:42:00,29.7,22.1,30.05,NNW,340,3.0,6.0,73,0.00,,,0.00,meteohub,2013-03-03 00:42:00,
2013-03-02 19:47:00,29.8,22.3,30.05,NNW,346,3.0,6.0,73,0.00,,,0.00,meteohub,2013-03-03 00:47:00,
2013-03-02 19:52:00,29.7,22.1,30.05,NNW,335,0.0,6.0,73,0.00,,,0.00,meteohub,2013-03-03 00:52:00,
2013-03-02 19:57:00,29.7,22.1,30.05,WNW,294,0.0,5.0,73,0.00,,,0.00,meteohub,2013-03-03 00:57:00,
2013-03-02 20:02:00,29.7,22.5,30.05,WNW,288,1.0,5.0,74,0.00,,,0.00,meteohub,2013-03-03 01:02:00,
2013-03-02 20:07:00,29.7,22.1,30.05,NW,305,1.0,3.0,73,0.00,,,0.00,meteohub,2013-03-03 01:07:00,
2013-03-02 20:12:00,29.7,22.5,30.05,WNW,297,1.0,3.0,74,0.00,,,0.00,meteohub,2013-03-03 01:12:00,
2013-03-02 20:17:00,29.7,22.1,30.04,WSW,239,1.0,3.0,73,0.00,,,0.00,meteohub,2013-03-03 01:17:00,
2013-03-02 20:22:00,29.7,22.5,30.04,SW,236,1.0,3.0,74,0.00,,,0.00,meteohub,2013-03-03 01:22:00,
2013-03-02 20:27:00,29.5,22.3,30.04,SW,232,1.0,3.0,74,0.00,,,0.00,meteohub,2013-03-03 01:27:00,
2013-03-02 20:32:00,29.5,22.5,30.04,SW,236,1.0,3.0,75,0.00,,,0.00,meteohub,2013-03-03 01:32:00,
2013-03-02 20:37:00,29.3,22.3,30.04,SW,228,0.0,2.0,75,0.00,,,0.00,meteohub,2013-03-03 01:37:00,
2013-03-02 20:42:00,29.3,22.3,30.04,SW,224,1.0,2.0,75,0.00,,,0.00,meteohub,2013-03-03 01:42:00,
2013-03-02 20:47:00,29.3,22.6,30.04,SW,231,0.0,2.0,76,0.00,,,0.00,meteohub,2013-03-03 01:47:00,
2013-03-02 20:52:00,29.3,22.6,30.04,WSW,245,0.0,2.0,76,0.00,,,0.00,meteohub,2013-03-03 01:52:00,
2013-03-02 20:57:00,29.5,22.5,30.05,SW,232,1.0,2.0,75,0.00,,,0.00,meteohub,2013-03-03 01:57:00,
2013-03-02 21:02:00,29.5,22.8,30.05,SW,226,1.0,2.0,76,0.00,,,0.00,meteohub,2013-03-03 02:02:00,
2013-03-02 21:07:00,29.5,22.8,30.05,SW,228,1.0,2.0,76,0.00,,,0.00,meteohub,2013-03-03 02:07:00,
2013-03-02 21:12:00,29.5,22.5,30.05,SW,236,1.0,2.0,75,0.00,,,0.00,meteohub,2013-03-03 02:12:00,
2013-03-02 21:17:00,29.5,22.5,30.05,SW,233,1.0,2.0,75,0.00,,,0.00,meteohub,2013-03-03 02:17:00,
2013-03-02 21:22:00,29.5,22.8,30.05,WSW,242,1.0,2.0,76,0.00,,,0.00,meteohub,2013-03-03 02:22:00,
2013-03-02 21:27:00,29.5,22.8,30.05,WSW,243,2.0,2.0,76,0.00,,,0.00,meteohub,2013-03-03 02:27:00,
2013-03-02 21:32:00,29.5,22.5,30.05,SSW,208,1.0,2.0,75,0.00,,,0.00,meteohub,2013-03-03 02:32:00,
2013-03-02 21:37:00,29.5,22.5,30.04,SW,217,1.0,2.0,75,0.00,,,0.00,meteohub,2013-03-03 02:37:00,
2013-03-02 21:42:00,29.3,22.3,30.04,SW,236,1.0,3.0,75,0.00,,,0.00,meteohub,2013-03-03 02:42:00,
2013-03-02 21:47:00,29.5,22.3,30.04,WSW,240,0.0,3.0,74,0.00,,,0.00,meteohub,2013-03-03 02:47:00,
2013-03-02 21:52:00,29.5,22.5,30.04,WSW,241,1.0,4.0,75,0.00,,,0.00,meteohub,2013-03-03 02:52:00,
2013-03-02 21:57:00,29.5,22.5,30.04,WSW,245,1.0,4.0,75,0.00,,,0.00,meteohub,2013-03-03 02:57:00,
2013-03-02 22:02:00,29.5,22.5,30.04,WSW,237,2.0,3.0,75,0.00,,,0.00,meteohub,2013-03-03 03:02:00,
2013-03-02 22:07:00,29.7,22.5,30.04,WSW,247,2.0,3.0,74,0.00,,,0.00,meteohub,2013-03-03 03:07:00,
2013-03-02 22:12:00,29.7,22.5,30.04,WSW,249,2.0,3.0,74,0.00,,,0.00,meteohub,2013-03-03 03:12:00,
2013-03-02 22:17:00,29.7,22.6,30.04,WSW,249,0.0,3.0,75,0.00,,,0.00,meteohub,2013-03-03 03:17:00,
2013-03-02 22:22:00,29.5,22.5,30.04,WSW,253,2.0,4.0,75,0.00,,,0.00,meteohub,2013-03-03 03:22:00,
2013-03-02 22:27:00,29.5,22.5,30.04,SW,236,0.0,4.0,75,0.00,,,0.00,meteohub,2013-03-03 03:27:00,
2013-03-02 22:32:00,29.5,22.5,30.04,SW,229,2.0,3.0,75,0.00,,,0.00,meteohub,2013-03-03 03:32:00,
2013-03-02 22:37:00,29.5,22.5,30.04,SW,235,4.0,4.0,75,0.00,,,0.00,meteohub,2013-03-03 03:37:00,
2013-03-02 22:42:00,29.5,22.5,30.04,SW,224,4.0,7.0,75,0.00,,,0.00,meteohub,2013-03-03 03:42:00,
2013-03-02 22:47:00,29.5,22.5,30.04,West,264,3.0,7.0,75,0.00,,,0.00,meteohub,2013-03-03 03:47:00,
2013-03-02 22:52:00,29.5,22.5,30.04,WSW,239,4.0,7.0,75,0.00,,,0.00,meteohub,2013-03-03 03:52:00,
2013-03-02 22:57:00,29.5,22.5,30.04,WSW,239,2.0,7.0,75,0.00,,,0.00,meteohub,2013-03-03 03:57:00,
2013-03-02 23:02:00,29.5,22.8,30.04,SW,236,2.0,5.0,76,0.00,,,0.00,meteohub,2013-03-03 04:02:00,
2013-03-02 23:07:00,29.5,22.8,30.04,SW,225,1.0,5.0,76,0.00,,,0.00,meteohub,2013-03-03 04:07:00,
2013-03-02 23:12:00,29.5,22.8,30.04,SSW,205,0.0,3.0,76,0.00,,,0.00,meteohub,2013-03-03 04:12:00,
2013-03-02 23:17:00,29.5,23.2,30.04,West,276,1.0,3.0,77,0.00,,,0.00,meteohub,2013-03-03 04:17:00,
2013-03-02 23:22:00,29.5,23.2,30.04,SW,221,0.0,4.0,77,0.00,,,0.00,meteohub,2013-03-03 04:22:00,
2013-03-02 23:27:00,29.5,22.8,30.03,WSW,239,1.0,4.0,76,0.00,,,0.00,meteohub,2013-03-03 04:27:00,
2013-03-02 23:32:00,29.5,23.2,30.03,WSW,257,1.0,4.0,77,0.00,,,0.00,meteohub,2013-03-03 04:32:00,
2013-03-02 23:37:00,29.5,23.2,30.03,West,269,2.0,3.0,77,0.00,,,0.00,meteohub,2013-03-03 04:37:00,
2013-03-02 23:42:00,29.5,23.2,30.03,WSW,241,0.0,3.0,77,0.00,,,0.00,meteohub,2013-03-03 04:42:00,
2013-03-02 23:47:00,29.5,23.2,30.03,West,264,1.0,3.0,77,0.00,,,0.00,meteohub,2013-03-03 04:47:00,
2013-03-02 23:52:00,29.7,23.4,30.03,West,267,1.0,3.0,77,0.00,,,0.00,meteohub,2013-03-03 04:52:00,
2013-03-02 23:57:00,29.7,23.4,30.03,West,276,3.0,4.0,77,0.00,,,0.00,meteohub,2013-03-03 04:57:00,